Fort Smith, AR

4:56 PM CDT on August 25, 2016 (GMT -0500)
Fort Smith Regional

Weather History for KFSM - February, 2014

Change the Weather History Date:

Sunday, February 2, 2014

  Actual Average Record
Temperature  
Mean Temperature 30 °F 41 °F  
Max Temperature 35 °F 52 °F 77 °F (1995)
Min Temperature 25 °F 30 °F -9 °F (1951)
Degree Days  
Heating Degree Days 35 24  
Month to date heating degree days 57 48  
Since 1 July heating degree days 2301 2139  
Moisture  
Dew Point 27 °F    
Average Humidity 84    
Maximum Humidity 92    
Minimum Humidity 75    
Precipitation  
Precipitation 0.43 in 0.10 in 1.46 in (1886)
Month to date precipitation 0.44 0.19  
Year to date precipitation 1.23 3.00  
Sea Level Pressure  
Sea Level Pressure 30.20 in    
Wind  
Wind Speed 8 mph (NNW)    
Max Wind Speed 17 mph    
Max Gust Speed 21 mph    
Visibility 4 miles    
Events Fog , Snow    
T = Trace of Precipitation, MM = Missing Value Source: NWS Daily Summary

Daily Weather History Graph

Daily Weather History Graph

Search for Another Location

Airport or City:

Trip Planner

Search our weather history database for the weather conditions in past years. The results will help you decide how hot, cold, wet, or windy it might be!

Date:

Astronomy

Feb. 02, 2014 Rise Set
Actual Time 7:16 AM CST 5:46 PM CST
Civil Twilight 6:49 AM CST 6:13 PM CST
Nautical Twilight 6:19 AM CST 6:43 PM CST
Astronomical Twilight 5:49 AM CST 7:13 PM CST
Moon 8:51 AM CST (2/2) 9:21 PM CST (2/2)
Length of Visible Light 11h 24m
Length of Day
10h 30m
Waxing Crescent, 11% of the Moon is Illuminated
Feb 2
Waxing Crescent
Feb 6
First Quarter
Feb 14
Full
Feb 22
Last Quarter
Mar 1
New

Hourly Weather History & Observations

Time (CST) Temp. Windchill Dew Point Humidity Pressure Visibility Wind Dir Wind Speed Gust Speed Precip Events Conditions
12:49 AM 35.6 °F 28.6 °F 30.2 °F 81% 30.09 in 6.0 mi NNW 9.2 mph - N/A   Haze
12:53 AM 35.1 °F 26.9 °F 30.0 °F 82% 30.10 in 6.0 mi NNW 11.5 mph - N/A   Haze
1:53 AM 34.0 °F 25.0 °F 28.9 °F 82% 30.11 in 7.0 mi NNW 12.7 mph - N/A   Overcast
2:53 AM 34.0 °F 26.0 °F 28.9 °F 82% 30.12 in 7.0 mi North 10.4 mph - N/A   Overcast
3:13 AM 33.8 °F 25.3 °F 28.4 °F 81% 30.12 in 7.0 mi North 11.5 mph - N/A   Overcast
3:53 AM 34.0 °F 26.0 °F 28.0 °F 79% 30.14 in 8.0 mi North 10.4 mph - N/A   Overcast
4:53 AM 34.0 °F 28.0 °F 28.0 °F 79% 30.14 in 8.0 mi North 6.9 mph - N/A   Overcast
5:53 AM 34.0 °F 28.8 °F 28.0 °F 79% 30.15 in 8.0 mi North 5.8 mph - N/A   Overcast
6:53 AM 34.0 °F 27.2 °F 27.0 °F 75% 30.19 in 8.0 mi NNW 8.1 mph - N/A   Overcast
7:53 AM 34.0 °F 26.6 °F 27.0 °F 75% 30.20 in 8.0 mi NNE 9.2 mph - N/A   Overcast
8:36 AM 33.8 °F 24.8 °F 26.6 °F 75% 30.15 in 1.8 mi NE 12.7 mph - 0.00 in Snow Light Snow
8:41 AM 33.8 °F 23.9 °F 26.6 °F 75% 30.14 in 0.8 mi NE 15.0 mph 20.7 mph 0.01 in Snow Light Snow
8:51 AM 33.8 °F 25.3 °F 26.6 °F 75% 30.15 in 2.0 mi NNE 11.5 mph - 0.03 in Snow Light Snow
8:53 AM 33.1 °F 23.9 °F 27.0 °F 78% 30.16 in 2.5 mi NNE 12.7 mph - 0.03 in Snow Light Snow
9:22 AM 33.8 °F 28.6 °F 28.4 °F 81% 30.20 in 1.8 mi North 5.8 mph - 0.06 in Snow Light Snow
9:44 AM 32.0 °F 25.6 °F 28.4 °F 87% 30.22 in 0.5 mi NNW 6.9 mph - 0.08 in Fog , Snow Snow
9:53 AM 32.0 °F 25.6 °F 28.9 °F 88% 30.28 in 0.2 mi West 6.9 mph - 0.11 in Fog , Snow Snow
10:07 AM 32.0 °F 26.4 °F 28.4 °F 87% 30.26 in 0.2 mi NW 5.8 mph - 0.03 in Fog , Snow Snow
10:43 AM 32.0 °F - 28.4 °F 87% 30.25 in 0.8 mi Calm Calm - 0.11 in Snow Light Snow
10:53 AM 32.0 °F 24.8 °F 28.0 °F 85% 30.24 in 0.8 mi North 8.1 mph - 0.12 in Snow Light Snow
11:22 AM 32.0 °F 25.6 °F 28.4 °F 87% 30.23 in 1.0 mi NNW 6.9 mph - 0.03 in Snow Light Snow
11:31 AM 32.0 °F 24.8 °F 28.4 °F 87% 30.23 in 0.8 mi NNW 8.1 mph - 0.04 in Snow Light Snow
11:40 AM 32.0 °F 23.6 °F 28.4 °F 87% 30.21 in 0.5 mi North 10.4 mph - 0.06 in Fog , Snow Snow
11:53 AM 32.0 °F 24.2 °F 28.9 °F 88% 30.20 in 0.8 mi North 9.2 mph - 0.07 in Snow Light Snow
12:09 PM 32.0 °F 24.2 °F 28.4 °F 87% 30.19 in 1.2 mi North 9.2 mph - 0.02 in Snow Light Snow
12:20 PM 32.0 °F 25.6 °F 28.4 °F 87% 30.21 in 2.5 mi North 6.9 mph - 0.02 in Snow Light Snow
12:25 PM 32.0 °F 24.8 °F 28.4 °F 87% 30.21 in 3.0 mi North 8.1 mph - 0.02 in Snow Light Snow
12:41 PM 32.0 °F 27.5 °F 28.4 °F 87% 30.21 in 3.0 mi NNW 4.6 mph - 0.02 in Snow Light Snow
12:50 PM 32.0 °F 25.6 °F 28.4 °F 87% 30.20 in 1.8 mi North 6.9 mph - 0.02 in Snow Light Snow
12:53 PM 32.0 °F 25.6 °F 28.9 °F 88% 30.20 in 1.5 mi North 6.9 mph - 0.02 in Snow Light Snow
1:26 PM 32.0 °F 23.6 °F 28.4 °F 87% 30.17 in 2.0 mi North 10.4 mph - 0.01 in Snow Light Snow
1:37 PM 33.8 °F 26.4 °F 28.4 °F 81% 30.17 in 4.0 mi NNW 9.2 mph - 0.01 in Snow Light Snow
1:53 PM 33.1 °F 25.5 °F 28.0 °F 82% 30.17 in 6.0 mi NNW 9.2 mph - 0.01 in   Haze
2:53 PM 34.0 °F 27.2 °F 28.0 °F 79% 30.15 in 9.0 mi North 8.1 mph - N/A   Overcast
3:53 PM 34.0 °F 27.2 °F 27.0 °F 75% 30.19 in 10.0 mi NW 8.1 mph - N/A   Overcast
4:53 PM 34.0 °F 28.8 °F 27.0 °F 75% 30.23 in 2.0 mi NW 5.8 mph - 0.00 in Snow Light Snow
4:58 PM 33.8 °F 27.0 °F 28.4 °F 81% 30.22 in 0.8 mi WNW 8.1 mph - 0.01 in Snow Light Snow
5:07 PM 32.0 °F 25.6 °F 28.4 °F 87% 30.22 in 0.2 mi NW 6.9 mph - 0.02 in Fog , Snow Heavy Snow
5:17 PM 30.2 °F 21.3 °F 28.4 °F 93% 30.22 in 0.5 mi NNW 10.4 mph - 0.03 in Fog , Snow Snow
5:31 PM 30.2 °F 21.3 °F 28.4 °F 93% 30.21 in 0.8 mi North 10.4 mph - 0.05 in Snow Light Snow
5:38 PM 30.2 °F 21.9 °F 28.4 °F 93% 30.21 in 0.8 mi North 9.2 mph - 0.05 in Snow Light Snow
5:45 PM 30.2 °F 23.4 °F 28.4 °F 93% 30.21 in 1.0 mi North 6.9 mph - 0.06 in Snow Light Snow
5:53 PM 30.9 °F 23.5 °F 28.0 °F 89% 30.22 in 1.5 mi NNW 8.1 mph - 0.06 in Snow Light Snow
6:02 PM 30.2 °F 23.4 °F 28.4 °F 93% 30.21 in 2.5 mi North 6.9 mph - 0.00 in Snow Light Snow
6:29 PM 30.2 °F 21.9 °F 28.4 °F 93% 30.19 in 4.0 mi North 9.2 mph - 0.01 in Snow Light Snow
6:43 PM 30.2 °F 21.3 °F 26.6 °F 86% 30.20 in 6.0 mi North 10.4 mph - 0.01 in   Overcast
6:53 PM 30.9 °F 26.2 °F 27.0 °F 85% 30.25 in 8.0 mi NW 4.6 mph - 0.01 in   Overcast
7:31 PM 30.2 °F 23.4 °F 26.6 °F 86% 30.24 in 10.0 mi NW 6.9 mph - N/A   Overcast
7:53 PM 30.9 °F 22.2 °F 25.0 °F 79% 30.26 in 10.0 mi NNW 10.4 mph - N/A   Overcast
8:53 PM 30.0 °F 23.2 °F 24.1 °F 79% 30.27 in 10.0 mi North 6.9 mph - N/A   Overcast
9:53 PM 30.0 °F 26.5 °F 24.1 °F 79% 30.29 in 10.0 mi NNW 3.5 mph - N/A   Overcast
10:53 PM 28.9 °F 25.2 °F 23.0 °F 78% 30.29 in 10.0 mi NNW 3.5 mph - N/A   Overcast
11:53 PM 25.0 °F 20.7 °F 19.0 °F 78% 30.29 in 10.0 mi NW 3.5 mph - N/A   Partly Cloudy